This is the latest recevied weather packets stored in our database for station/object dl1wer-13. If no packets are shown the sender has not sent any weather packets the latest 10 day(s).
| Time | Temp. | Humidity | Pressure | Rain* | Wind** | Luminosity | Snow |
|---|---|---|---|---|---|---|---|
| 1778011823 | 13.89° C | 75% | 1035.6 hPa | 0 mm | - | - | - |
| 1778011223 | 13.89° C | 72% | 1035.4 hPa | 0 mm | - | - | - |
| 1778010622 | 14.44° C | 70% | 1035.4 hPa | 0 mm | - | - | - |
| 1778010022 | 14.44° C | 73% | 1035.2 hPa | 0 mm | - | - | - |
| 1778009422 | 14.44° C | 74% | 1035 hPa | 0 mm | - | - | - |
| 1778008822 | 14.44° C | 75% | 1034.9 hPa | 0 mm | - | - | - |
| 1778008223 | 14.44° C | 76% | 1034.3 hPa | 0 mm | - | - | - |
| 1778007623 | 14.44° C | 76% | 1034.5 hPa | 0 mm | - | - | - |
| 1778007022 | 14.44° C | 76% | 1034.2 hPa | 0 mm | - | - | - |
| 1778006422 | 14.44° C | 75% | 1034.2 hPa | 0 mm | - | - | - |
| 1778005822 | 14.44° C | 75% | 1034.2 hPa | 0 mm | - | - | - |
| 1778005222 | 14.44° C | 74% | 1034 hPa | 0 mm | - | - | - |
| 1778004622 | 15° C | 73% | 1034.1 hPa | 0 mm | - | - | - |
| 1778004023 | 15° C | 72% | 1033.9 hPa | 0 mm | - | - | - |
| 1778003422 | 15.56° C | 71% | 1033.7 hPa | 0 mm | - | - | - |
| 1778002822 | 15.56° C | 71% | 1033.6 hPa | 0 mm | - | - | - |
| 1778002223 | 15.56° C | 72% | 1033.4 hPa | 0 mm | - | - | - |
| 1778001622 | 16.11° C | 70% | 1033.3 hPa | 0 mm | - | - | - |
| 1778001022 | 16.11° C | 70% | 1033.3 hPa | 0 mm | - | - | - |
| 1778000423 | 16.11° C | 71% | 1033.1 hPa | 0 mm | - | - | - |
| 1777999822 | 16.11° C | 72% | 1033.1 hPa | 0 mm | - | - | - |
| 1777999221 | 16.11° C | 71% | 1033.3 hPa | 0 mm | - | - | - |
| 1777998622 | 16.67° C | 69% | 1033.8 hPa | 0 mm | - | - | - |
| 1777998022 | 16.67° C | 68% | 1033.8 hPa | 0 mm | - | - | - |
| 1777997422 | 16.67° C | 67% | 1033.9 hPa | 0 mm | - | - | - |
* Rain latest hour (hover to see other rain measurements)
** Current wind speed in m/s (hover to see current wind gust speed)